Tracking 17155 objects as of 28-July-2015
HD Live streaming from Space Station

ARIANE 44L+3 R/B

Track ARIANE 44L+3 R/B now!
ARIANE 44L+3 R/B is classified as:


NORAD ID: 23866
Int'l Code: 1996-030C
Perigee: 283.5 km
Apogee: 31,072.3 km
Inclination: 4.1 °
Period: 543.0 minutes
Semi major axis: 22048 km
RCS: 20.3809 m2 (large)
Launch date: May 16, 1996
Source: France (FR)

Note: This is a ROCKET BODY
Your satellite tracking list
Your tracking list is empty





NASA's NSSDC Master Catalog

Two Line Element Set (TLE):
1 23866U 96030C   15208.70052216  .00006523  00000-0  25184-2 0  9990
2 23866 004.1386 154.3564 6981934 336.9889 041.9088 02.65169253172585

Source of the keplerian elements: AFSPC

N2YO: 291